Home   Weather   East London   Past weeks

Flag for South Africa Past Weather in East London, South Africa — Yesterday and Last 2 Weeks

Now
50 °F

Light rain. Passing clouds.


Feels Like: 46 °F
Forecast: 49 / 65 °F
Wind: 9 mph from West

Location: East London

Current Time: Aug 18, 2017 at 5:22:03 am

Latest Report: Aug 18, 2017 at 5:00 am


Visibility: N/A

Pressure: 30.45 "Hg

Humidity: 88%

Dew Point: 46 °F

Location of East LondonLocation

Past Weather in East London — Graph

°F

East London Temperature Yesterday

Maximum temperature yesterday: 61 °F (at 11:00 am)
Minimum temperature yesterday: 48 °F (at 8:00 am)
Average temperature yesterday: 55 °F

High & Low Weather Summary for the Past Weeks

 TemperatureHumidityPressure
High73 °F (Aug 10, 10:59 am)94% (Aug 3, 8:00 pm)30.39 "Hg (Aug 3, 8:00 pm)
Low48 °F (Aug 15, 7:00 am)15% (Aug 11, 10:00 am)29.86 "Hg (Aug 16, 12:00 pm)
Average61 °F69%30.16 "Hg
* Reported Aug 2 8:00 pm — Aug 17 8:00 pm, East London. Weather by CustomWeather, © 2017

Note: Actual official high and low records may vary slightly from our data, if they occured in-between our weather recording intervals... More about our weather records

Advertising

East London Weather History for the Previous 24 Hours

Scroll right to see more
 ConditionsComfort  
Time TempWeatherWind HumidityBarometerVisibility
8:00 pm
Thu, Aug 17
57 °FPassing clouds.13 mph59%30.36 "HgN/A
7:00 pm55 °FPassing clouds.12 mph67%30.33 "HgN/A
6:00 pm57 °FPassing clouds.13 mph63%30.30 "HgN/A
5:00 pm57 °FPartly sunny.13 mph77%30.27 "HgN/A
4:44 pm57 °FPartly sunny.14 mph77%30.27 "HgN/A
4:37 pm55 °FRain. Partly sunny.16 mph82%30.24 "Hg2 mi
4:00 pm59 °FPartly sunny.15 mph63%30.24 "HgN/A
3:00 pm59 °FPartly sunny.15 mph63%30.21 "HgN/A
2:00 pm59 °FPartly sunny.18 mph63%30.18 "HgN/A
1:48 pm59 °FPartly sunny.18 mph63%30.18 "HgN/A
1:09 pm55 °FLight rain. Broken clouds.14 mph82%30.18 "Hg4 mi
12:36 pm55 °FRain. Mostly cloudy.17 mph88%30.18 "Hg2 mi
12:20 pm55 °FLight rain. Partly sunny.17 mph88%30.18 "Hg4 mi
12:00 pm55 °FRain. More clouds than sun.14 mph82%30.15 "Hg3 mi
11:00 am61 °FPassing clouds.15 mph68%30.15 "HgN/A
10:00 am57 °FScattered clouds.16 mph77%30.15 "HgN/A
9:32 am54 °FLight rain. Mostly cloudy.20 mph94%30.12 "Hg5 mi
9:00 am54 °FRain. Fog.18 mph94%30.09 "Hg1 mi
8:14 am50 °FLight rain. Mostly cloudy.15 mph88%30.09 "Hg6 mi
8:00 am48 °FRain. Partly sunny.15 mph94%30.09 "Hg3 mi
7:04 am50 °FLight rain. Scattered clouds.18 mph82%30.09 "HgN/A
6:00 am50 °FClear.20 mph76%30.04 "Hg10 mi
5:00 am50 °FClear.18 mph76%30.04 "Hg10 mi
Weather by CustomWeather, © 2017

See weather overviewHow to use our weather pages